TimeCDT,TemperatureF,Dew PointF,Humidity,Sea Level PressureIn,VisibilityMPH,Wind Direction,Wind SpeedMPH,Gust SpeedMPH,PrecipitationIn,Events,Conditions,WindDirDegrees,DateUTC
12:56 AM,60.1,55.9,86,30.00,10.0,West,4.6,-,N/A,,Clear,270,2013-05-08 05:56:00
1:56 AM,59.0,55.0,87,29.99,7.0,West,4.6,-,N/A,,Clear,280,2013-05-08 06:56:00
2:56 AM,60.1,55.9,86,29.98,6.0,West,5.8,-,N/A,,Clear,280,2013-05-08 07:56:00
3:39 AM,59.0,55.4,88,30.02,2.0,West,4.6,-,N/A,,Clear,280,2013-05-08 08:39:00
3:46 AM,59.0,55.4,88,30.02,1.5,West,3.5,-,N/A,,Clear,280,2013-05-08 08:46:00
3:56 AM,59.0,55.9,90,29.99,1.5,WNW,3.5,-,N/A,,Clear,300,2013-05-08 08:56:00
4:37 AM,57.2,53.6,88,30.03,0.5,Calm,Calm,-,N/A,Fog,Fog,0,2013-05-08 09:37:00
4:48 AM,55.4,53.6,94,30.03,0.2,Calm,Calm,-,N/A,Fog,Fog,0,2013-05-08 09:48:00
4:56 AM,55.9,53.1,90,29.99,0.2,Calm,Calm,-,N/A,Fog,Fog,0,2013-05-08 09:56:00
5:34 AM,55.4,51.8,88,30.04,0.5,Calm,Calm,-,N/A,Fog,Fog,0,2013-05-08 10:34:00
5:44 AM,55.4,51.8,88,30.04,2.5,Calm,Calm,-,N/A,,Mostly Cloudy,0,2013-05-08 10:44:00
5:49 AM,53.6,51.8,94,30.05,0.8,Calm,Calm,-,N/A,,Mist,0,2013-05-08 10:49:00
5:56 AM,54.0,51.1,90,30.01,0.8,Calm,Calm,-,N/A,,Mostly Cloudy,0,2013-05-08 10:56:00
6:24 AM,53.6,51.8,94,30.07,0.2,Calm,Calm,-,N/A,Fog,Fog,0,2013-05-08 11:24:00
6:56 AM,57.0,54.0,89,30.05,0.8,Calm,Calm,-,N/A,,Mist,0,2013-05-08 11:56:00
7:56 AM,60.1,57.0,90,30.06,1.5,Calm,Calm,-,N/A,,Overcast,0,2013-05-08 12:56:00
8:00 AM,60.8,57.2,88,30.10,3.0,Calm,Calm,-,N/A,,Mostly Cloudy,0,2013-05-08 13:00:00
8:14 AM,62.6,57.2,82,30.10,6.0,Calm,Calm,-,N/A,,Scattered Clouds,0,2013-05-08 13:14:00
8:56 AM,69.1,60.1,73,30.06,10.0,NW,3.5,-,N/A,,Scattered Clouds,310,2013-05-08 13:56:00
9:56 AM,75.0,54.0,48,30.07,10.0,Calm,Calm,-,N/A,,Scattered Clouds,0,2013-05-08 14:56:00
10:56 AM,77.0,53.1,43,30.08,10.0,NW,3.5,-,N/A,,Mostly Cloudy,310,2013-05-08 15:56:00
11:56 AM,78.1,55.0,45,30.07,10.0,Calm,Calm,-,N/A,,Mostly Cloudy,0,2013-05-08 16:56:00
12:56 PM,78.1,53.1,42,30.06,10.0,WSW,3.5,-,N/A,,Mostly Cloudy,250,2013-05-08 17:56:00
1:56 PM,80.1,55.0,42,30.05,10.0,SW,9.2,-,N/A,,Mostly Cloudy,220,2013-05-08 18:56:00
2:56 PM,78.1,57.9,50,30.04,10.0,SW,6.9,-,N/A,,Mostly Cloudy,220,2013-05-08 19:56:00
3:56 PM,79.0,57.9,48,30.02,10.0,SSW,12.7,-,N/A,,Mostly Cloudy,200,2013-05-08 20:56:00
4:56 PM,79.0,59.0,50,30.02,10.0,South,13.8,-,N/A,,Mostly Cloudy,190,2013-05-08 21:56:00
5:56 PM,75.0,61.0,62,30.02,10.0,SSW,13.8,-,N/A,,Scattered Clouds,200,2013-05-08 22:56:00
6:56 PM,73.0,62.1,68,30.02,10.0,SSW,8.1,-,N/A,,Scattered Clouds,200,2013-05-08 23:56:00
7:56 PM,70.0,63.0,78,30.04,10.0,SSW,6.9,-,N/A,,Scattered Clouds,210,2013-05-09 00:56:00
8:56 PM,68.0,63.0,84,30.05,8.0,South,5.8,-,N/A,,Partly Cloudy,180,2013-05-09 01:56:00
9:56 PM,66.0,61.0,84,30.07,8.0,SW,5.8,-,N/A,,Clear,220,2013-05-09 02:56:00
10:56 PM,64.9,61.0,87,30.07,7.0,SSW,3.5,-,N/A,,Clear,210,2013-05-09 03:56:00
11:56 PM,64.9,60.1,84,30.07,8.0,WSW,5.8,-,N/A,,Clear,240,2013-05-09 04:56:00